Weather Roundup
Issued by NWS

Home | Current Version | Previous Version | Text Only | Print | Product List | Glossary On
Versions: 1 2 3 4 5 6 7 8 9 10 11 12 13 14 15 16 17 18 19 20 21 22 23 24 25 26 27 28 29 30 31 32 33 34 35 36 37 38 39 40 41 42 43 44 45 46 47 48 49 50
000
NZUS93 KARX 281010
HRRWXR

CURRENT HOURLY OBSERVATIONS ACROSS
MUCH OF THE UPPER MISSISSIPPI VALLEY
NATIONAL WEATHER SERVICE LA CROSSE WI
400 AM CST WED JAN 28 2015


...SOUTHEAST MINNESOTA...


CITY           SKY/WX    TMP DP  RH WIND       PRES   REMARKS
ROCHESTER      CLOUDY    25  23  92 S17       30.08F FOG     WCI  12
ROCHESTER/MAYO CLOUDY    26  24  91 SE12G21   30.09S WCI  16
WINONA         CLOUDY    30  27  86 SE7       30.15S WCI  23
AUSTIN         CLOUDY    27  27 100 SE10G16   30.07F FOG     WCI  17
ALBERT LEA     CLOUDY    28  28 100 SE17G25   30.04F FOG     WCI  16
DODGE CENTER   CLOUDY    27  27 100 S15       30.06F FOG     WCI  15
PRESTON        CLOUDY    24  22  93 S13       30.10F FOG     WCI  12
OWATONNA       CLOUDY    28  27  93 SE15      30.04F FOG     WCI  17
FARIBAULT      CLOUDY    28  27  93 SE12      30.05F WCI  18
$$

...ELSEWHERE IN MINNESOTA...


CITY           SKY/WX    TMP DP  RH WIND       PRES   REMARKS
MINNEAPOLIS    CLOUDY    30  25  81 SE12      30.06F WCI  20
INTNL FALLS    CLOUDY    26  23  88 SE7       29.95F WCI  18
DULUTH         CLOUDY    24  19  81 S13       30.02S WCI  12
RED WING       CLOUDY    28  25  86 SE15      30.09F WCI  17
REDWOOD FALLS  CLOUDY    33  30  88 SE20      29.94F WCI  21
MANKATO        CLOUDY    30  27  86 S16G22    30.01F WCI  19
WORTHINGTON    CLEAR     30  27  86 SE13      29.92F WCI  20
FAIRMONT       CLOUDY    30  27  86 SE17      29.99F WCI  18
$$

...SOUTHWEST WISCONSIN...


CITY           SKY/WX    TMP DP  RH WIND       PRES   REMARKS
LA CROSSE      CLOUDY    28  22  78 S10       30.16F WCI  19
PRAIRIE DU CHI CLOUDY    27  22  82 SE8       30.18F FOG     WCI  18
BOSCOBEL       CLOUDY    28  22  78 VRB5      30.19F WCI  23
LONE ROCK      CLOUDY    25  20  81 SE3       30.21S
PLATTEVILLE    CLOUDY    27  24  89 SE8       30.18S WCI  18
FORT MC COY    CLOUDY    26  23  86 S9        30.17F WCI  17
CAMP DOUGLAS   CLOUDY    27  27 100 S7        30.17S WCI  19
VIROQUA        CLOUDY    24  24 100 S9        30.13F WCI  15
WIS DELLS      CLOUDY    26  22  85 S7        30.18F WCI  18
$$

...ELSEWHERE IN WISCONSIN...


CITY           SKY/WX    TMP DP  RH WIND       PRES   REMARKS
MILWAUKEE      MOCLDY    23  16  74 CALM      30.26F
MADISON        MOCLDY    23  18  81 S7        30.21F WCI  15
GREEN BAY      MOCLDY    17  15  92 SE3       30.23F
EAU CLAIRE     CLOUDY    25  20  81 SE9       30.11F WCI  15
BLACK RVR FLS  CLOUDY    26  22  84 S5        30.16S FOG     WCI  21
MEDFORD        CLOUDY    23  21  93 S12       30.11F FOG     WCI  12
WAUSAU         CLOUDY    23  19  85 SE8       30.14F WCI  14
WIS RAPIDS     CLOUDY    24  20  84 SE6       30.18F WCI  17
MARSHFIELD     CLOUDY    25  22  88 S12       30.14F FOG     WCI  14
RICE LAKE      CLOUDY    25  22  86 SE10      30.10F WCI  15
$$

...NORTHEAST IOWA...


CITY           SKY/WX    TMP DP  RH WIND       PRES   REMARKS
DECORAH        CLOUDY    25  23  93 SE12      30.12F FOG     WCI  14
MASON CITY     CLOUDY    27  27 100 SE18      30.08F FOG     WCI  14
CHARLES CITY   CLOUDY    27  27 100 SE14G21   30.12S FOG     WCI  15
OELWEIN        CLOUDY    25  25 100 SE14      30.14S FOG     WCI  13
$$

...ELSEWHERE IN IOWA...


CITY           SKY/WX    TMP DP  RH WIND       PRES   REMARKS
DES MOINES     CLOUDY    31  27  85 SE12      30.07F FOG     WCI  22
IOWA CITY      CLOUDY    27  26  96 SE14      30.19F FOG     WCI  16
FORT DODGE     CLOUDY    30  27  86 SE12      30.03F WCI  21
$$

...NORTHERN ILLINOIS...


CITY           SKY/WX    TMP DP  RH WIND       PRES   REMARKS
CHICAGO-OHARE  MOCLDY    23  19  85 CALM      30.26S
CHICAGO-MIDWAY PTCLDY    25  19  78 S3        30.29R
MOLINE         CLOUDY    29  24  82 SE8       30.20F WCI  21
ROCKFORD       PTCLDY    21  16  81 SE5       30.25F WCI  15
PEORIA         PTCLDY    26  22  84 S5        30.24F WCI  20
$$

NOTE: "FAIR" INDICATES FEW OR NO CLOUDS BELOW 12,000 FEET WITH NO
SIGNIFICANT WEATHER AND/OR OBSTRUCTIONS TO VISIBILITY. WIND
SPEEDS ARE IN MILES-PER-HOUR.



USA.gov is the U.S. government's official web portal to all federal, state and local government web resources and services.